Погода в Свободе-Над-Упоу

Чехия     50°37′33″N   15°48′54″E
темп.,
°C
ветер,
м/с
пор.,
м/с
влажн.,
%
обл.,
%
осадки,
мм/ч
давл.,
гПа
погр.,
м
17 апреля, сб
сб1723:000ссз2698100 0.3 1022422
02:00−1сз249899 0.4 1021312
05:00−2сз1399100 0.6 1021151
08:00−1ссз229797 1.2 1021229
11:00+1ссз119595 0.3 1021278
14:00+2с1194100 0.4 1020428
17:00+2с119495 0.1 1020348
20:00+1с1199100 0.1 102051
18 апреля, вс
вс1823:00+1зсз1199100 0.1 102168
02:00+1ссв1198100 0.1 102076
05:00+1с1199100 0.0 102041
08:00+2ссз1198100 0.0 102098
11:00+4ссв128798 0.0 1019464
14:00+6св2279100 0.4 1018723
17:00+6св2281100 0.6 1018633
20:00+3св1196100 1.1 102012
19 апреля, пн
пн1923:00+1ссв1197100 0.0 102015
02:00+1св119793 0.0 102014
05:000св1196100 0.0 102018
08:00+4ссв1289100 0.0 1019125
11:00+6с268599 0.0 1018878
14:00+5с2697100 0.8 1018647
17:00+6св3891100 0.4 10171053
20:00+4св2696100 0.6 1017399
20 апреля, вт
вт2023:00+2с119696 0.2 101822
02:00+2с229644 0.4 101731
05:00+2с2399100 0.1 1016118
08:00+3ссв249579 0.3 1016336
11:00+4св248885 0.3 1016702
14:00+7ссв227449 0.7 1015885
17:00+7ссв237546 0.9 1015809
20:00+3ссв11935 1.3 101612
21 апреля, ср
ср2123:00+2зсз119316 0.0 101711
02:00+2зюз119142 0.0 101612
05:00+4юз118997 0.1 101514
08:00+5сз248890 0.2 1015466
11:00+7сз357157 0.3 10161181
14:00+7зсз456390 0.6 10161393
17:00+7сз356343 0.1 10171302
20:00+3зсз228017 0.1 101814